This is the latest recevied weather packets stored in our database for station/object KE8WAY. If no packets are shown the sender has not sent any weather packets the latest 10 day(s).
| Time | Temp. | Humidity | Pressure | Rain* | Wind** | Luminosity | Snow |
|---|---|---|---|---|---|---|---|
| 1778071476 | 8.89° C | 70% | 1010.2 hPa | 0 mm | - | 252 W/m² | - |
| 1778071174 | 8.89° C | 69% | 1010.3 hPa | 0 mm | - | 88 W/m² | - |
| 1778070872 | 9.44° C | 72% | 1010 hPa | 0 mm | - | 124 W/m² | - |
| 1778070569 | 8.89° C | 75% | 1010 hPa | 0 mm | - | 293 W/m² | - |
| 1778070266 | 8.33° C | 81% | 1009.9 hPa | 0 mm | - | 225 W/m² | - |
| 1778069964 | 8.33° C | 81% | 1009.7 hPa | 0 mm | - | 95 W/m² | - |
| 1778069661 | 8.33° C | 83% | 1009.7 hPa | 0 mm | - | 121 W/m² | - |
| 1778069358 | 8.33° C | 84% | 1009.4 hPa | 0 mm | - | 69 W/m² | - |
| 1778069055 | 8.33° C | 86% | 1009.6 hPa | 0 mm | - | 104 W/m² | - |
| 1778068752 | 7.78° C | 87% | 1009.6 hPa | 0 mm | - | 87 W/m² | - |
| 1778068450 | 7.78° C | 87% | 1009.5 hPa | 0 mm | - | 71 W/m² | - |
| 1778068149 | 7.78° C | 87% | 1009.7 hPa | 0 mm | - | 55 W/m² | - |
| 1778067846 | 7.78° C | 87% | 1009.4 hPa | 0 mm | - | 64 W/m² | - |
| 1778067545 | 7.78° C | 86% | 1009.4 hPa | 0 mm | - | 49 W/m² | - |
| 1778067241 | 7.78° C | 86% | 1009.5 hPa | 0 mm | - | 38 W/m² | - |
| 1778066938 | 7.78° C | 87% | 1009.4 hPa | 0 mm | - | 40 W/m² | - |
| 1778066635 | 7.22° C | 86% | 1009.5 hPa | 0 mm | - | 36 W/m² | - |
| 1778066332 | 7.22° C | 88% | 1009.4 hPa | 0 mm | - | 24 W/m² | - |
| 1778066031 | 7.22° C | 88% | 1009.4 hPa | 0 mm | - | 16 W/m² | - |
| 1778065728 | 7.22° C | 87% | 1009.3 hPa | 0 mm | - | 13 W/m² | - |
| 1778065425 | 7.22° C | 86% | 1008.9 hPa | 0 mm | - | 12 W/m² | - |
| 1778065122 | 7.22° C | 87% | 1009 hPa | 0 mm | - | 4 W/m² | - |
| 1778064818 | 7.22° C | 88% | 1008.8 hPa | 0 mm | - | 4 W/m² | - |
| 1778064516 | 7.22° C | 87% | 1008.5 hPa | 0 mm | - | 4 W/m² | - |
| 1778064213 | 7.22° C | 87% | 1008.5 hPa | 0 mm | - | 2 W/m² | - |
* Rain latest hour (hover to see other rain measurements)
** Current wind speed in m/s (hover to see current wind gust speed)